Time,TemperatureF,DewpointF,PressureIn,WindDirection,WindDirectionDegrees,WindSpeedMPH,WindSpeedGustMPH,Humidity,HourlyPrecipIn,Conditions,Clouds,dailyrainin,SoftwareType,DateUTC
2013-05-06 00:10:00,48.9,49.0,29.91,WNW,288,0.0,1.0,99,0.02,,,0.01,weatherlink.com 1.10,2013-05-06 04:10:00,
2013-05-06 00:25:00,48.8,49.0,29.91,NNW,342,0.0,1.0,99,0.05,,,0.04,weatherlink.com 1.10,2013-05-06 04:25:00,
2013-05-06 00:40:00,48.6,48.0,29.91,NNW,341,0.0,0.0,99,0.04,,,0.04,weatherlink.com 1.10,2013-05-06 04:40:00,
2013-05-06 00:55:00,48.3,48.0,29.90,NNW,343,0.0,1.0,99,0.04,,,0.04,weatherlink.com 1.10,2013-05-06 04:55:00,
2013-05-06 01:10:00,48.4,48.0,29.90,NNW,341,0.0,0.0,99,0.02,,,0.04,weatherlink.com 1.10,2013-05-06 05:10:00,
2013-05-06 01:25:00,48.7,49.0,29.89,NNW,342,0.0,1.0,99,0.00,,,0.04,weatherlink.com 1.10,2013-05-06 05:25:00,
2013-05-06 01:40:00,49.0,49.0,29.88,West,278,0.0,1.0,99,0.00,,,0.04,weatherlink.com 1.10,2013-05-06 05:40:00,
2013-05-06 01:55:00,49.1,49.0,29.89,WSW,248,0.0,1.0,99,0.00,,,0.04,weatherlink.com 1.10,2013-05-06 05:55:00,
2013-05-06 02:10:00,49.2,49.0,29.89,NE,39,0.0,2.0,99,0.03,,,0.07,weatherlink.com 1.10,2013-05-06 06:10:00,
2013-05-06 02:25:00,49.3,49.0,29.89,WSW,249,0.0,1.0,99,0.03,,,0.07,weatherlink.com 1.10,2013-05-06 06:25:00,
2013-05-06 02:40:00,49.5,49.0,29.88,WSW,252,0.0,1.0,99,0.03,,,0.07,weatherlink.com 1.10,2013-05-06 06:40:00,
2013-05-06 02:55:00,49.6,49.0,29.88,NNW,344,0.0,1.0,99,0.03,,,0.07,weatherlink.com 1.10,2013-05-06 06:55:00,
2013-05-06 03:10:00,49.9,50.0,29.88,ENE,71,0.0,2.0,99,0.00,,,0.07,weatherlink.com 1.10,2013-05-06 07:10:00,
2013-05-06 03:25:00,50.1,50.0,29.88,West,269,0.0,2.0,99,0.00,,,0.07,weatherlink.com 1.10,2013-05-06 07:25:00,
2013-05-06 03:40:00,50.5,50.0,29.88,NNW,347,0.0,2.0,99,0.00,,,0.07,weatherlink.com 1.10,2013-05-06 07:40:00,
2013-05-06 03:55:00,51.4,51.0,29.88,ENE,75,0.0,3.0,99,0.00,,,0.07,weatherlink.com 1.10,2013-05-06 07:55:00,
2013-05-06 04:11:00,51.8,52.0,29.88,West,260,0.0,1.0,99,0.01,,,0.08,weatherlink.com 1.10,2013-05-06 08:11:00,
2013-05-06 04:26:00,51.6,51.0,29.88,West,278,0.0,1.0,99,0.01,,,0.08,weatherlink.com 1.10,2013-05-06 08:26:00,
2013-05-06 04:41:00,51.5,51.0,29.88,West,278,0.0,0.0,98,0.01,,,0.08,weatherlink.com 1.10,2013-05-06 08:41:00,
2013-05-06 04:56:00,51.5,51.0,29.89,WNW,285,0.0,2.0,98,0.01,,,0.08,weatherlink.com 1.10,2013-05-06 08:56:00,
2013-05-06 05:11:00,51.5,51.0,29.89,WNW,285,0.0,1.0,98,0.00,,,0.08,weatherlink.com 1.10,2013-05-06 09:11:00,
2013-05-06 05:26:00,51.1,50.0,29.89,WNW,285,0.0,0.0,97,0.00,,,0.08,weatherlink.com 1.10,2013-05-06 09:26:00,
2013-05-06 05:41:00,50.8,50.0,29.89,WNW,285,0.0,0.0,98,0.00,,,0.08,weatherlink.com 1.10,2013-05-06 09:41:00,
2013-05-06 05:56:00,50.4,50.0,29.89,WNW,285,0.0,0.0,98,0.00,,,0.08,weatherlink.com 1.10,2013-05-06 09:56:00,
2013-05-06 06:11:00,50.1,50.0,29.89,WNW,285,0.0,0.0,98,0.00,,,0.08,weatherlink.com 1.10,2013-05-06 10:11:00,
2013-05-06 06:26:00,49.3,49.0,29.90,WNW,285,0.0,1.0,98,0.00,,,0.08,weatherlink.com 1.10,2013-05-06 10:26:00,
2013-05-06 06:41:00,48.7,48.0,29.91,WNW,285,0.0,0.0,98,0.00,,,0.08,weatherlink.com 1.10,2013-05-06 10:41:00,
2013-05-06 06:56:00,49.0,49.0,29.91,WNW,285,0.0,0.0,99,0.00,,,0.08,weatherlink.com 1.10,2013-05-06 10:56:00,
2013-05-06 07:11:00,48.9,49.0,29.91,WNW,285,0.0,0.0,99,0.00,,,0.08,weatherlink.com 1.10,2013-05-06 11:11:00,
2013-05-06 07:26:00,48.3,48.0,29.91,WNW,285,0.0,0.0,98,0.00,,,0.08,weatherlink.com 1.10,2013-05-06 11:26:00,
2013-05-06 07:41:00,48.7,49.0,29.92,WNW,285,0.0,0.0,99,0.00,,,0.08,weatherlink.com 1.10,2013-05-06 11:41:00,
2013-05-06 07:56:00,49.5,49.0,29.93,WNW,285,0.0,1.0,99,0.00,,,0.08,weatherlink.com 1.10,2013-05-06 11:56:00,
2013-05-06 08:11:00,52.4,52.0,29.93,WNW,293,0.0,1.0,99,0.00,,,0.08,weatherlink.com 1.10,2013-05-06 12:11:00,
2013-05-06 08:26:00,51.7,50.0,29.93,WNW,287,0.0,1.0,93,0.00,,,0.08,weatherlink.com 1.10,2013-05-06 12:26:00,
2013-05-06 08:41:00,51.4,49.0,29.94,WSW,243,0.0,1.0,92,0.00,,,0.08,weatherlink.com 1.10,2013-05-06 12:41:00,
2013-05-06 08:56:00,53.5,51.0,29.94,NW,324,0.0,2.0,90,0.00,,,0.08,weatherlink.com 1.10,2013-05-06 12:56:00,
2013-05-06 09:11:00,55.8,49.0,29.94,SE,128,1.0,3.0,78,0.00,,,0.08,weatherlink.com 1.10,2013-05-06 13:11:00,
2013-05-06 09:26:00,56.1,52.0,29.94,ENE,57,1.0,3.0,87,0.00,,,0.08,weatherlink.com 1.10,2013-05-06 13:26:00,
2013-05-06 09:41:00,55.9,49.0,29.94,West,266,0.0,2.0,77,0.00,,,0.08,weatherlink.com 1.10,2013-05-06 13:41:00,
2013-05-06 09:56:00,57.0,48.0,29.95,NW,318,1.0,3.0,71,0.00,,,0.08,weatherlink.com 1.10,2013-05-06 13:56:00,
2013-05-06 10:11:00,56.4,46.0,29.95,SSW,194,0.0,4.0,69,0.00,,,0.08,weatherlink.com 1.10,2013-05-06 14:11:00,
2013-05-06 10:26:00,57.4,47.0,29.95,NW,326,1.0,5.0,68,0.00,,,0.08,weatherlink.com 1.10,2013-05-06 14:26:00,
2013-05-06 10:41:00,57.5,46.0,29.96,East,80,4.0,7.0,66,0.00,,,0.08,weatherlink.com 1.10,2013-05-06 14:41:00,
2013-05-06 10:56:00,58.1,44.0,29.96,NE,44,2.0,6.0,60,0.00,,,0.08,weatherlink.com 1.10,2013-05-06 14:56:00,
2013-05-06 11:11:00,59.2,47.0,29.96,West,266,0.0,4.0,65,0.00,,,0.08,weatherlink.com 1.10,2013-05-06 15:11:00,
2013-05-06 11:26:00,59.6,49.0,29.96,WNW,290,0.0,6.0,67,0.00,,,0.08,weatherlink.com 1.10,2013-05-06 15:26:00,
2013-05-06 11:41:00,58.9,43.0,29.96,NW,315,2.0,4.0,57,0.00,,,0.08,weatherlink.com 1.10,2013-05-06 15:41:00,
2013-05-06 11:56:00,59.9,45.0,29.96,West,280,2.0,3.0,59,0.00,,,0.08,weatherlink.com 1.10,2013-05-06 15:56:00,
2013-05-06 12:11:00,60.3,44.0,29.95,NE,48,2.0,5.0,55,0.00,,,0.08,weatherlink.com 1.10,2013-05-06 16:11:00,
2013-05-06 12:26:00,60.2,46.0,29.95,SSE,162,1.0,9.0,60,0.00,,,0.08,weatherlink.com 1.10,2013-05-06 16:26:00,
2013-05-06 12:41:00,59.5,48.0,29.95,West,270,2.0,6.0,65,0.00,,,0.08,weatherlink.com 1.10,2013-05-06 16:41:00,
2013-05-06 12:56:00,60.0,45.0,29.96,WNW,285,2.0,10.0,59,0.00,,,0.08,weatherlink.com 1.10,2013-05-06 16:56:00,
2013-05-06 13:11:00,60.8,45.0,29.95,WSW,257,2.0,7.0,56,0.00,,,0.08,weatherlink.com 1.10,2013-05-06 17:11:00,
2013-05-06 13:26:00,60.1,47.0,29.95,WNW,297,1.0,5.0,62,0.00,,,0.08,weatherlink.com 1.10,2013-05-06 17:26:00,
2013-05-06 13:41:00,60.2,45.0,29.94,NW,319,1.0,4.0,58,0.00,,,0.08,weatherlink.com 1.10,2013-05-06 17:41:00,
2013-05-06 13:56:00,60.3,45.0,29.95,NW,315,2.0,6.0,58,0.00,,,0.08,weatherlink.com 1.10,2013-05-06 17:56:00,
2013-05-06 14:11:00,61.3,46.0,29.94,ENE,60,1.0,6.0,57,0.00,,,0.08,weatherlink.com 1.10,2013-05-06 18:11:00,
2013-05-06 14:27:00,63.0,46.0,29.93,NNW,333,1.0,4.0,55,0.00,,,0.08,weatherlink.com 1.10,2013-05-06 18:27:00,
2013-05-06 14:42:00,62.7,47.0,29.93,West,273,0.0,3.0,58,0.00,,,0.08,weatherlink.com 1.10,2013-05-06 18:42:00,
2013-05-06 14:57:00,64.0,45.0,29.93,West,269,1.0,4.0,50,0.00,,,0.08,weatherlink.com 1.10,2013-05-06 18:57:00,
2013-05-06 15:12:00,62.7,46.0,29.93,NW,319,10.0,10.0,55,0.00,,,0.08,weatherlink.com 1.10,2013-05-06 19:12:00,
2013-05-06 15:27:00,61.5,46.0,29.93,WNW,293,2.0,11.0,57,0.00,,,0.08,weatherlink.com 1.10,2013-05-06 19:27:00,
2013-05-06 15:42:00,61.4,46.0,29.93,West,260,5.0,12.0,57,0.00,,,0.08,weatherlink.com 1.10,2013-05-06 19:42:00,
2013-05-06 15:57:00,61.8,48.0,29.93,WNW,296,4.0,6.0,60,0.00,,,0.08,weatherlink.com 1.10,2013-05-06 19:57:00,
2013-05-06 16:12:00,60.7,47.0,29.93,West,274,3.0,10.0,60,0.00,,,0.08,weatherlink.com 1.10,2013-05-06 20:12:00,
2013-05-06 16:27:00,60.2,46.0,29.93,NW,326,5.0,8.0,60,0.00,,,0.08,weatherlink.com 1.10,2013-05-06 20:27:00,
2013-05-06 16:42:00,59.8,47.0,29.94,WNW,290,3.0,8.0,63,0.00,,,0.08,weatherlink.com 1.10,2013-05-06 20:42:00,
2013-05-06 16:57:00,59.6,48.0,29.94,WNW,282,1.0,10.0,65,0.00,,,0.08,weatherlink.com 1.10,2013-05-06 20:57:00,
2013-05-06 17:12:00,59.3,45.0,29.93,NW,307,4.0,5.0,60,0.00,,,0.08,weatherlink.com 1.10,2013-05-06 21:12:00,
2013-05-06 17:27:00,59.8,46.0,29.93,West,276,3.0,5.0,60,0.00,,,0.08,weatherlink.com 1.10,2013-05-06 21:27:00,
2013-05-06 17:42:00,59.0,47.0,29.94,NW,305,1.0,5.0,64,0.00,,,0.08,weatherlink.com 1.10,2013-05-06 21:42:00,
2013-05-06 17:57:00,56.9,46.0,29.94,NW,323,5.0,6.0,68,0.00,,,0.08,weatherlink.com 1.10,2013-05-06 21:57:00,
2013-05-06 18:12:00,57.1,46.0,29.94,NW,322,1.0,5.0,66,0.00,,,0.08,weatherlink.com 1.10,2013-05-06 22:12:00,
2013-05-06 18:27:00,57.4,45.0,29.94,NNW,329,2.0,4.0,64,0.00,,,0.08,weatherlink.com 1.10,2013-05-06 22:27:00,
2013-05-06 18:42:00,56.8,44.0,29.95,SW,229,3.0,6.0,63,0.00,,,0.08,weatherlink.com 1.10,2013-05-06 22:42:00,
2013-05-06 18:57:00,56.4,44.0,29.95,WNW,285,0.0,9.0,64,0.00,,,0.08,weatherlink.com 1.10,2013-05-06 22:57:00,
2013-05-06 19:12:00,56.2,46.0,29.95,NNW,334,3.0,7.0,68,0.00,,,0.08,weatherlink.com 1.10,2013-05-06 23:12:00,
2013-05-06 19:27:00,55.3,46.0,29.95,NW,318,4.0,6.0,71,0.00,,,0.08,weatherlink.com 1.10,2013-05-06 23:27:00,
2013-05-06 19:42:00,53.7,45.0,29.95,West,267,1.0,6.0,73,0.00,,,0.08,weatherlink.com 1.10,2013-05-06 23:42:00,
2013-05-06 19:57:00,52.4,45.0,29.96,NW,312,3.0,7.0,77,0.00,,,0.08,weatherlink.com 1.10,2013-05-06 23:57:00,
2013-05-06 20:12:00,51.5,45.0,29.96,WSW,248,1.0,4.0,79,0.00,,,0.08,weatherlink.com 1.10,2013-05-07 00:12:00,
2013-05-06 20:27:00,50.7,45.0,29.97,WNW,287,0.0,4.0,81,0.00,,,0.08,weatherlink.com 1.10,2013-05-07 00:27:00,
2013-05-06 20:42:00,50.0,45.0,29.98,WNW,290,0.0,3.0,82,0.00,,,0.08,weatherlink.com 1.10,2013-05-07 00:42:00,
2013-05-06 20:57:00,49.3,45.0,29.98,NW,306,0.0,1.0,84,0.00,,,0.08,weatherlink.com 1.10,2013-05-07 00:57:00,
2013-05-06 21:12:00,48.7,44.0,29.99,West,273,0.0,1.0,85,0.00,,,0.08,weatherlink.com 1.10,2013-05-07 01:12:00,
2013-05-06 21:27:00,48.1,44.0,29.98,SSW,193,0.0,1.0,87,0.00,,,0.08,weatherlink.com 1.10,2013-05-07 01:27:00,
2013-05-06 21:42:00,47.1,44.0,29.99,SSW,192,0.0,0.0,90,0.00,,,0.08,weatherlink.com 1.10,2013-05-07 01:42:00,
2013-05-06 21:57:00,46.2,44.0,30.00,SSW,204,0.0,0.0,92,0.00,,,0.08,weatherlink.com 1.10,2013-05-07 01:57:00,
2013-05-06 22:12:00,45.7,44.0,30.00,WSW,254,0.0,0.0,92,0.00,,,0.08,weatherlink.com 1.10,2013-05-07 02:12:00,
2013-05-06 22:27:00,45.1,43.0,30.00,WSW,255,0.0,1.0,93,0.00,,,0.08,weatherlink.com 1.10,2013-05-07 02:27:00,
2013-05-06 22:42:00,44.5,43.0,30.00,WSW,254,0.0,0.0,94,0.00,,,0.08,weatherlink.com 1.10,2013-05-07 02:42:00,
2013-05-06 22:57:00,44.1,43.0,30.00,WSW,255,0.0,0.0,95,0.00,,,0.08,weatherlink.com 1.10,2013-05-07 02:57:00,
2013-05-06 23:12:00,43.7,42.0,30.00,WSW,255,0.0,1.0,95,0.00,,,0.08,weatherlink.com 1.10,2013-05-07 03:12:00,
2013-05-06 23:27:00,43.1,42.0,30.00,WSW,254,0.0,0.0,95,0.00,,,0.08,weatherlink.com 1.10,2013-05-07 03:27:00,
2013-05-06 23:42:00,42.8,42.0,30.00,WSW,255,0.0,0.0,96,0.00,,,0.08,weatherlink.com 1.10,2013-05-07 03:42:00,
2013-05-06 23:57:00,42.4,41.0,30.00,WSW,254,0.0,0.0,96,0.00,,,0.08,weatherlink.com 1.10,2013-05-07 03:57:00,